Torna al catalogo

AE5RA

AttivoComunicazioniSSO
NORAD 66685·PAYLOAD·🇺🇸 United States

Lanciato Nov 28, 2025 da Vandenberg Space Force Base

Loading…

Prossimi Passaggi (prossime 24 ore)

TLE

AggiornatoSource: Space-Track

Epoca: Sep 13, 2026, 17:34 UTC

1 66685U 25276V   26256.73203990  .00008068  00000-0  32849-3 0  9998
2 66685  97.4145 329.7840 0005562  73.3690 286.8158 15.24745714 43939

Traccia AE5RA in tempo reale con AllMySat

Download on the App Store